Mt. Pocono, PA

10:47 AM EST on December 08, 2019 (GMT -0500)
Pocono Mountains Municipal

Weather History for KMPO - September, 2019

Change the Weather History Date:

Wednesday, September 25, 2019

  Actual Average Record
Temperature  
Mean Temperature 56 °F 55 °F  
Max Temperature 71 °F 64 °F 85 °F (1970)
Min Temperature 41 °F 46 °F 26 °F (1963)
Degree Days  
Heating Degree Days 9 10  
Month to date heating degree days 108 149  
Since 1 July heating degree days 149 212  
Cooling Degree Days 0 0  
Month to date cooling degree days 25 13  
Year to date cooling degree days 343 309  
Growing Degree Days 6 (Base 50)    
Moisture  
Dew Point 48 °F    
Average Humidity 76    
Maximum Humidity 100    
Minimum Humidity 41    
Precipitation  
Precipitation 0.00 in 0.21 in 2.70 in (1902)
Month to date precipitation 1.08 4.33  
Year to date precipitation 36.01 35.31  
Sea Level Pressure  
Sea Level Pressure 29.91 in    
Wind  
Wind Speed 4 mph ()    
Max Wind Speed 16 mph    
Max Gust Speed 22 mph    
Visibility 9.9 miles    
Events      
T = Trace of Precipitation, MM = Missing Value Source: Averaged Metar Reports

Daily Weather History Graph

Daily Weather History Graph

Search for Another Location

Airport or City:

Astronomy

Sep. 25, 2019 Rise Set
Actual Time 6:51 AM EDT 6:53 PM EDT
Civil Twilight 6:24 AM EDT 7:21 PM EDT
Nautical Twilight 5:52 AM EDT 7:53 PM EDT
Astronomical Twilight 5:19 AM EDT 8:26 PM EDT
Moon 2:39 AM EDT (9/25) 5:26 PM EDT (9/25)
Length of Visible Light 12h 57m
Length of Day
12h 02m
Waning Crescent, 14% of the Moon is Illuminated
Sep 25
Waning Crescent
Sep 28
New
Oct 5
First Quarter
Oct 13
Full
Oct 21
Last Quarter

Hourly Weather History & Observations

Time (EDT) Temp. Windchill Dew Point Humidity Pressure Visibility Wind Dir Wind Speed Gust Speed Precip Events Conditions
12:53 AM 48.0 °F - 46.9 °F 96% 29.92 in 10.0 mi WNW 3.5 mph - N/A   Clear
1:53 AM 45.0 °F 43.5 °F 45.0 °F 100% 29.91 in 10.0 mi West 3.5 mph - N/A   Partly Cloudy
2:53 AM 46.9 °F - 46.9 °F 100% 29.90 in 10.0 mi Calm Calm - N/A   Mostly Cloudy
3:53 AM 46.0 °F 43.9 °F 46.0 °F 100% 29.92 in 10.0 mi WNW 4.6 mph - N/A   Clear
4:53 AM 45.0 °F 43.5 °F 45.0 °F 100% 29.93 in 10.0 mi WNW 3.5 mph - N/A   Clear
6:53 AM 44.1 °F 42.5 °F 44.1 °F 100% 29.95 in 8.0 mi WNW 3.5 mph - N/A   Clear
7:53 AM 48.0 °F - 46.9 °F 96% 29.95 in 10.0 mi Calm Calm - N/A   Clear
8:53 AM 54.0 °F - 50.0 °F 86% 29.95 in 10.0 mi West 8.1 mph - N/A   Clear
9:53 AM 59.0 °F - 51.1 °F 75% 29.95 in 10.0 mi West 11.5 mph - N/A   Clear
10:53 AM 64.0 °F - 51.1 °F 63% 29.95 in 10.0 mi West 12.7 mph - N/A   Clear
11:53 AM 66.0 °F - 48.9 °F 54% 29.95 in 10.0 mi WNW 9.2 mph - N/A   Scattered Clouds
12:53 PM 69.1 °F - 48.0 °F 47% 29.93 in 10.0 mi West 13.8 mph - N/A   Clear
1:53 PM 70.0 °F - 46.9 °F 44% 29.90 in 10.0 mi West 9.2 mph - N/A   Clear
2:53 PM 70.0 °F - 48.0 °F 46% 29.88 in 10.0 mi West 6.9 mph - N/A   Clear
3:53 PM 71.1 °F - 46.9 °F 42% 29.87 in 10.0 mi West 8.1 mph - N/A   Clear
4:53 PM 70.0 °F - 48.0 °F 46% 29.87 in 10.0 mi SW 9.2 mph - N/A   Clear
5:53 PM 69.1 °F - 46.9 °F 45% 29.88 in 10.0 mi West 8.1 mph - N/A   Clear
6:53 PM 63.0 °F - 50.0 °F 63% 29.90 in 10.0 mi West 4.6 mph - N/A   Clear
7:53 PM 55.9 °F - 51.1 °F 84% 29.91 in 10.0 mi Calm Calm - N/A   Clear
8:53 PM 54.0 °F - 51.1 °F 90% 29.91 in 10.0 mi Calm Calm - N/A   Clear
9:53 PM 53.1 °F - 48.9 °F 86% 29.91 in 10.0 mi Calm Calm - N/A   Clear
10:53 PM 51.1 °F - 48.9 °F 92% 29.91 in 10.0 mi Calm Calm - N/A   Clear
11:53 PM 50.0 °F - 48.0 °F 93% 29.89 in 10.0 mi Calm Calm - N/A   Clear